Content
SEND FEEDBACK

Daily
Averages
Monthly
Summary
United States of America

EARTH CITY, MISSOURI


Home > North America > United States > Missouri
Elevation: 476 feet     Latitude: 38 46N     Longitude: 090 30W

WEATHER
 
SELECT A DAY
Number of Records: 203,490;   Date Range: 1/1/95 - 8/12/14
 
SHARE

PRINT THIS DATA

[ ← Previous Day ]
WEATHER ALMANAC - JUNE 12, 2013
[ Next Day → ]
[ °C ]   °F
Weather ElementAverageHighLow
Temperature87.1 °F96.1 °F (2:51 pm)75.9 °F (5:51 am)
Dewpoint68.9 °F71.1 °F (10:51 am)66 °F (9:51 pm)
Humidity55.6 %74 % (5:51 am)41 % (3:51 pm)
Barometer29.80 in29.93 in (7:51 am)29.71 in (6:51 pm)
Wind Speed13.1 mph24.2 mph (4:51 pm)
Wind Gust35.7 mph (3:51 pm)
Weather ElementAverage
Visibility10 mi
Wind DirectionSSW (213.5 °)

Weather ElementTotal
Precipitation---
Cooling Degree Days21 (Base 65)
Growing Degree Days36 (Base 50)
Averaged from 23 records on June 12, 2013
WEATHER CONDITIONS BREAKOUT
WIND DIRECTION BREAKOUT
WEATHER BY HOUR - JUNE 12, 2013
[ °C ]   °F
Local TimeTemperatureDewpointHumidityBarometerVisibilityWind DirectionWind SpeedGust SpeedPrecipitationEventsConditions
1:51 AM81.0 °F69.1 °F67 %29.85 in10.0 miSW (230°)4.6 mphPartly Cloudy
2:51 AM79.0 °F68.0 °F69 %29.85 in10.0 miSSW (210°)8.1 mphPartly Cloudy
3:51 AM78.1 °F66.9 °F68 %29.86 in10.0 miSW (230°)4.6 mphClear
4:51 AM78.1 °F66.9 °F68 %29.87 in10.0 miCalmScattered Clouds
5:51 AM75.9 °F66.9 °F74 %29.88 in10.0 miSSW (200°)3.5 mphScattered Clouds
6:51 AM80.1 °F68.0 °F67 %29.90 in10.0 miSouth (190°)3.5 mphScattered Clouds
7:51 AM80.1 °F69.1 °F69 %29.93 in10.0 miSSW (200°)4.6 mphMostly Cloudy
8:51 AM82.9 °F70.0 °F65 %29.92 in10.0 miSW (230°)9.2 mphMostly Cloudy
9:51 AM86.0 °F70.0 °F59 %29.89 in10.0 miSW (230°)17.3 mph23.0 mphMostly Cloudy
10:51 AM88.0 °F71.1 °F57 %29.86 in10.0 miSSW (210°)16.1 mphScattered Clouds
11:51 AM91.0 °F71.1 °F52 %29.84 in10.0 miSSW (210°)15.0 mph24.2 mphScattered Clouds
12:51 PM93.0 °F71.1 °F49 %29.81 in10.0 miSSW (210°)15.0 mph19.6 mphScattered Clouds
1:51 PM95.0 °F71.1 °F46 %29.78 in10.0 miSSW (210°)17.3 mph25.3 mphScattered Clouds
2:51 PM96.1 °F71.1 °F44 %29.76 in10.0 miSSW (210°)13.8 mph25.3 mphScattered Clouds
3:51 PM96.1 °F69.1 °F41 %29.74 in10.0 miSW (230°)19.6 mph35.7 mphScattered Clouds
4:51 PM95.0 °F70.0 °F44 %29.73 in10.0 miSW (230°)24.2 mph29.9 mphPartly Cloudy
5:51 PM93.9 °F69.1 °F44 %29.73 in10.0 miWSW (240°)19.6 mph32.2 mphScattered Clouds
6:51 PM93.0 °F69.1 °F45 %29.71 in10.0 miSW (230°)19.6 mph28.8 mphScattered Clouds
7:51 PM91.0 °F69.1 °F48 %29.71 in10.0 miWSW (240°)17.3 mph26.5 mphMostly Cloudy
8:51 PM89.1 °F68.0 °F50 %29.71 in10.0 miWSW (250°)18.4 mph27.6 mphPartly Cloudy
9:51 PM88.0 °F66.0 °F48 %29.71 in10.0 miWSW (240°)17.3 mph26.5 mphPartly Cloudy
10:51 PM87.1 °F66.9 °F51 %29.72 in10.0 miWSW (240°)17.3 mph24.2 mphPartly Cloudy
11:51 PM86.0 °F66.9 °F53 %29.72 in10.0 miWSW (240°)16.1 mph23.0 mphClear
Hourly data recorded from KSTL, located miles away from Earth City, Missouri







STORIES FROM OUR PARTNERS